Find Starlink 30715

NORAD ID: 57941 Int'l Des: 2023-148 Owner: SPXS Country: US Constellation: starlink operational
LEOCIRCULAR

Current View

Loading 3D Globe...

About Starlink 30715

Starlink 30715 (NORAD 57941) is a starlink constellation satellite (v2 mini) launched Sep 25, 2023 by SPXS of US. It operates in LEO, CIRCULAR orbit with a mass of 730.00 kg.

About Starlink 30715

Description loading...

Upcoming Passes

Passes for default location (London). Set your location on the main map for personalized predictions.

Altitude History

Loading altitude history...

Two-Line Element Set

1 57941U 23148G 26166.57850761 -.00001022 00000-0 -22394-4 0 9995
2 57941 53.1621 279.3046 0001433 80.9024 279.2139 15.30182133153550
Epoch: Jun 15, 2026 • Age: 9 hours

Current Status

Altitude 485.6 km
Velocity 7.62 km/s
Sub-Earth Point -31.23°S, 119.97°W
Launch Date Sep 25, 2023
Age 2.7 years
Type internet

Technical Details

Classification Payload
Mass 730.00 kg
Dry Mass 700.00 kg
Total Mass 730.00 kg
Length 0.30 m
Diameter 4.10 m
Span 29.00 m
Shape Box + pan
Manufacturer SPXS
Bus Type Starlink V2M
Phase Status In Orbit
Owner/State SPXS/US

Most Searched